Location: Auttagershofen
(48.1940°N, 10.0237°E)
Time: 22:11:55
(UTC+00:00)

Cosmos 2251 Rocket - Pass Details

Date: 18 January 2026
Orbit: 762 x 787 km, 74.0° (Epoch: 18 February)

Event Time Altitude Azimuth Distance (km) Brightness Sun altitude
Rises 05:30:29 0° 185° (S) 3,263 6.9 -15.1°
Reaches altitude 10° 05:32:55 10° 181° (S) 2,338 6.2 -14.7°
Maximum altitude 05:38:03 52° 106° (ESE) 973 4.5 -13.9°
Drops below altitude 10° 05:43:12 10° 31° (NNE) 2,342 6.2 -13.1°
Sets 05:45:38 0° 27° (NNE) 3,271 6.9 -12.7°
